Weather in Furstenfeld

Austria     47°02′52″N   16°04′48″E
temp.,
°C
wind,
m/s
gust,
m/s
humid.,
%
clouds,
%
prec.,
mm/h
press.,
hPa
HPBL,
m
5 march, fri
fri501:00+6wsw127280 0.0 101522
04:00+6sw1274100 0.0 101422
07:00+6ese1272100 0.0 101461
10:00+11n125695 0.0 1015378
13:00+12ne355195 0.4 10171400
16:00+8ene686096 0.3 1018796
19:00+4ne7126485 0.3 1022841
22:00+2ne6117096 0.0 10271063
6 march, sat
sat601:00+1nne595789 0.0 1030901
04:00−1nne266466 0.0 1031250
07:00−1nnw136133 0.0 1033109
10:00+4nne34380 0.0 10341353
13:00+6ene22310 0.0 10321545
16:00+5ese21320 0.0 10311511
19:00+1se12490 0.0 103222
22:00−1s01570 0.0 103221
7 march, sun
sun701:00−1sw11620 0.0 103221
04:00−2sw11620 0.0 103023
07:00−2sw12640 0.0 102932
10:00+5ssw23400 0.0 1027647
13:00+8ssw23330 0.0 1025936
16:00+7s233940 0.0 1021803
19:00+2s126220 0.0 102122
22:000w11710 0.0 102122
8 march, mon
mon801:000w11720 0.0 102021
04:000nw11715 0.0 101821
07:000ne016648 0.0 101921
10:00+6se115258 0.0 1019523
13:00+9sse224752 0.0 10191035
16:00+9sse225130 0.0 10181294
19:00+5e126659 0.0 102089
22:00+3ene126994 0.1 102160
9 march, tue
tue901:00+2nne118692 0.1 102143
04:00+2ene118898 0.1 1021171
07:00+2nne118696 0.1 1022178
10:00+4e226694 0.0 1022697
13:00+8e114791 0.1 10211234
16:00+7ene214775 0.0 10201430
19:00+4ene146284 0.0 1022288
22:00+1ne117158 0.0 102422